Time,TemperatureF,DewpointF,PressureIn,WindDirection,WindDirectionDegrees,WindSpeedMPH,WindSpeedGustMPH,Humidity,HourlyPrecipIn,Conditions,Clouds,dailyrainin,SoftwareType,DateUTC
2013-09-27 00:00:00,61.8,60.4,29.92,SW,215,0.0,1.0,95,0.00,,,0.00,Wunderground v.1.15,2013-09-27 05:00:00,
2013-09-27 00:06:00,61.8,60.4,29.92,SW,215,0.0,1.0,95,0.00,,,0.00,Wunderground v.1.15,2013-09-27 05:06:00,
2013-09-27 00:12:00,61.8,60.4,29.92,SW,215,0.0,1.0,95,0.00,,,0.00,Wunderground v.1.15,2013-09-27 05:12:00,
2013-09-27 00:18:00,61.6,60.2,29.92,SW,215,0.0,1.0,95,0.00,,,0.00,Wunderground v.1.15,2013-09-27 05:18:00,
2013-09-27 00:24:00,61.6,60.2,29.92,ESE,110,0.0,1.0,95,0.00,,,0.00,Wunderground v.1.15,2013-09-27 05:24:00,
2013-09-27 00:30:00,61.7,60.3,29.92,ESE,112,0.0,1.0,95,0.00,,,0.00,Wunderground v.1.15,2013-09-27 05:30:00,
2013-09-27 00:36:00,61.8,60.6,29.92,ESE,121,0.0,1.0,96,0.00,,,0.00,Wunderground v.1.15,2013-09-27 05:36:00,
2013-09-27 00:42:00,61.9,60.5,29.92,ESE,109,0.0,1.0,95,0.00,,,0.00,Wunderground v.1.15,2013-09-27 05:42:00,
2013-09-27 00:47:00,61.9,60.5,29.92,ESE,107,1.0,1.0,95,0.00,,,0.00,Wunderground v.1.15,2013-09-27 05:47:00,
2013-09-27 00:53:00,62.0,60.6,29.92,East,101,1.0,2.0,95,0.00,,,0.00,Wunderground v.1.15,2013-09-27 05:53:00,
2013-09-27 00:59:00,61.9,60.5,29.92,WSW,250,1.0,2.0,95,0.00,,,0.00,Wunderground v.1.15,2013-09-27 05:59:00,
2013-09-27 01:05:00,62.2,61.0,29.92,West,269,1.0,2.0,96,0.00,,,0.00,Wunderground v.1.15,2013-09-27 06:05:00,
2013-09-27 01:10:00,62.4,60.7,29.92,SE,129,1.0,1.0,94,0.00,,,0.00,Wunderground v.1.15,2013-09-27 06:10:00,
2013-09-27 01:16:00,62.4,60.7,29.92,SE,141,0.0,1.0,94,0.00,,,0.00,Wunderground v.1.15,2013-09-27 06:16:00,
2013-09-27 01:22:00,62.3,60.2,29.93,SE,141,0.0,0.0,93,0.00,,,0.00,Wunderground v.1.15,2013-09-27 06:22:00,
2013-09-27 01:28:00,62.2,60.2,29.93,SE,142,0.0,0.0,93,0.00,,,0.00,Wunderground v.1.15,2013-09-27 06:28:00,
2013-09-27 01:34:00,62.0,60.0,29.93,SE,141,0.0,2.0,93,0.00,,,0.00,Wunderground v.1.15,2013-09-27 06:34:00,
2013-09-27 01:40:00,62.0,60.0,29.93,SE,141,0.0,2.0,93,0.00,,,0.00,Wunderground v.1.15,2013-09-27 06:40:00,
2013-09-27 01:46:00,61.9,59.9,29.93,SE,141,0.0,2.0,93,0.00,,,0.00,Wunderground v.1.15,2013-09-27 06:46:00,
2013-09-27 01:51:00,61.6,59.6,29.93,SE,141,0.0,2.0,93,0.00,,,0.00,Wunderground v.1.15,2013-09-27 06:51:00,
2013-09-27 01:57:00,61.5,59.5,29.93,SE,141,0.0,2.0,93,0.00,,,0.00,Wunderground v.1.15,2013-09-27 06:57:00,
2013-09-27 02:03:00,61.6,59.9,29.94,SE,139,0.0,0.0,94,0.00,,,0.00,Wunderground v.1.15,2013-09-27 07:03:00,
2013-09-27 02:09:00,61.7,60.0,29.94,SE,139,0.0,0.0,94,0.00,,,0.00,Wunderground v.1.15,2013-09-27 07:09:00,
2013-09-27 02:14:00,61.4,59.7,29.94,SE,139,0.0,0.0,94,0.00,,,0.00,Wunderground v.1.15,2013-09-27 07:14:00,
2013-09-27 02:20:00,61.1,59.4,29.94,SE,140,0.0,0.0,94,0.00,,,0.00,Wunderground v.1.15,2013-09-27 07:20:00,
2013-09-27 02:26:00,61.1,59.7,29.94,SE,139,0.0,0.0,95,0.00,,,0.00,Wunderground v.1.15,2013-09-27 07:26:00,
2013-09-27 02:32:00,61.1,59.7,29.94,SE,139,0.0,3.0,95,0.00,,,0.00,Wunderground v.1.15,2013-09-27 07:32:00,
2013-09-27 02:38:00,61.2,59.8,29.94,SE,139,0.0,3.0,95,0.00,,,0.00,Wunderground v.1.15,2013-09-27 07:38:00,
2013-09-27 02:44:00,61.2,59.8,29.94,SE,140,0.0,3.0,95,0.00,,,0.00,Wunderground v.1.15,2013-09-27 07:44:00,
2013-09-27 02:50:00,61.1,59.7,29.94,SE,139,0.0,3.0,95,0.00,,,0.00,Wunderground v.1.15,2013-09-27 07:50:00,
2013-09-27 02:54:00,61.0,59.6,29.94,SE,139,0.0,3.0,95,0.00,,,0.00,Wunderground v.1.15,2013-09-27 07:54:00,
2013-09-27 03:00:00,60.8,59.7,29.94,SE,139,0.0,0.0,96,0.00,,,0.00,Wunderground v.1.15,2013-09-27 08:00:00,
2013-09-27 03:06:00,60.7,59.6,29.94,SE,139,0.0,0.0,96,0.00,,,0.00,Wunderground v.1.15,2013-09-27 08:06:00,
2013-09-27 03:12:00,60.6,59.5,29.94,SE,139,0.0,0.0,96,0.00,,,0.00,Wunderground v.1.15,2013-09-27 08:12:00,
2013-09-27 03:17:00,60.4,59.3,29.94,SE,140,0.0,0.0,96,0.00,,,0.00,Wunderground v.1.15,2013-09-27 08:17:00,
2013-09-27 03:23:00,60.3,59.2,29.94,SE,139,0.0,0.0,96,0.00,,,0.00,Wunderground v.1.15,2013-09-27 08:23:00,
2013-09-27 03:29:00,60.1,59.0,29.94,SE,141,0.0,0.0,96,0.00,,,0.00,Wunderground v.1.15,2013-09-27 08:29:00,
2013-09-27 03:35:00,60.0,58.9,29.94,SE,141,0.0,0.0,96,0.00,,,0.00,Wunderground v.1.15,2013-09-27 08:35:00,
2013-09-27 03:40:00,59.9,58.8,29.94,SE,141,0.0,0.0,96,0.00,,,0.00,Wunderground v.1.15,2013-09-27 08:40:00,
2013-09-27 03:46:00,59.9,58.8,29.94,SE,141,0.0,0.0,96,0.00,,,0.00,Wunderground v.1.15,2013-09-27 08:46:00,
2013-09-27 03:51:00,59.9,58.8,29.94,SE,141,0.0,0.0,96,0.00,,,0.00,Wunderground v.1.15,2013-09-27 08:51:00,
2013-09-27 03:57:00,59.8,58.7,29.95,SE,141,0.0,0.0,96,0.00,,,0.00,Wunderground v.1.15,2013-09-27 08:57:00,
2013-09-27 04:03:00,59.6,58.5,29.95,SE,141,0.0,0.0,96,0.00,,,0.00,Wunderground v.1.15,2013-09-27 09:03:00,
2013-09-27 04:09:00,59.5,58.4,29.95,SE,141,0.0,0.0,96,0.00,,,0.00,Wunderground v.1.15,2013-09-27 09:09:00,
2013-09-27 04:14:00,59.5,58.4,29.95,South,169,0.0,0.0,96,0.00,,,0.00,Wunderground v.1.15,2013-09-27 09:14:00,
2013-09-27 04:20:00,59.2,58.1,29.95,South,169,0.0,0.0,96,0.00,,,0.00,Wunderground v.1.15,2013-09-27 09:20:00,
2013-09-27 04:26:00,59.0,57.9,29.95,South,169,0.0,0.0,96,0.00,,,0.00,Wunderground v.1.15,2013-09-27 09:26:00,
2013-09-27 04:32:00,58.8,57.7,29.95,South,169,0.0,0.0,96,0.00,,,0.00,Wunderground v.1.15,2013-09-27 09:32:00,
2013-09-27 04:38:00,58.9,57.8,29.95,South,169,0.0,0.0,96,0.00,,,0.00,Wunderground v.1.15,2013-09-27 09:38:00,
2013-09-27 04:44:00,59.0,58.2,29.95,South,169,0.0,0.0,97,0.00,,,0.00,Wunderground v.1.15,2013-09-27 09:44:00,
2013-09-27 04:50:00,58.9,58.1,29.96,South,169,0.0,0.0,97,0.00,,,0.00,Wunderground v.1.15,2013-09-27 09:50:00,
2013-09-27 04:55:00,58.8,58.0,29.96,South,169,0.0,0.0,97,0.00,,,0.00,Wunderground v.1.15,2013-09-27 09:55:00,
2013-09-27 05:00:00,58.7,57.9,29.96,South,169,0.0,0.0,97,0.00,,,0.00,Wunderground v.1.15,2013-09-27 10:00:00,
2013-09-27 05:06:00,58.6,57.8,29.96,South,169,0.0,0.0,97,0.00,,,0.00,Wunderground v.1.15,2013-09-27 10:06:00,
2013-09-27 05:12:00,58.4,57.6,29.96,South,169,0.0,0.0,97,0.00,,,0.00,Wunderground v.1.15,2013-09-27 10:12:00,
2013-09-27 05:18:00,58.4,57.6,29.96,South,169,0.0,0.0,97,0.00,,,0.00,Wunderground v.1.15,2013-09-27 10:18:00,
2013-09-27 05:23:00,58.4,57.6,29.96,South,169,0.0,0.0,97,0.00,,,0.00,Wunderground v.1.15,2013-09-27 10:23:00,
2013-09-27 05:29:00,58.4,57.6,29.96,South,169,0.0,0.0,97,0.00,,,0.00,Wunderground v.1.15,2013-09-27 10:29:00,
2013-09-27 05:35:00,58.3,57.5,29.96,South,169,0.0,0.0,97,0.00,,,0.00,Wunderground v.1.15,2013-09-27 10:35:00,
2013-09-27 05:41:00,58.2,57.4,29.96,South,169,0.0,0.0,97,0.00,,,0.00,Wunderground v.1.15,2013-09-27 10:41:00,
2013-09-27 05:46:00,58.3,57.5,29.96,SE,132,0.0,0.0,97,0.00,,,0.00,Wunderground v.1.15,2013-09-27 10:46:00,
2013-09-27 05:52:00,58.3,57.5,29.97,SE,133,0.0,0.0,97,0.00,,,0.00,Wunderground v.1.15,2013-09-27 10:52:00,
2013-09-27 05:58:00,58.2,57.4,29.97,SE,132,0.0,0.0,97,0.00,,,0.00,Wunderground v.1.15,2013-09-27 10:58:00,
2013-09-27 06:04:00,58.3,57.5,29.97,SE,132,0.0,0.0,97,0.00,,,0.00,Wunderground v.1.15,2013-09-27 11:04:00,
2013-09-27 06:09:00,58.3,57.5,29.97,SE,132,0.0,0.0,97,0.00,,,0.00,Wunderground v.1.15,2013-09-27 11:09:00,
2013-09-27 06:15:00,58.2,57.4,29.97,SE,132,0.0,0.0,97,0.00,,,0.00,Wunderground v.1.15,2013-09-27 11:15:00,
2013-09-27 06:21:00,58.2,57.4,29.97,SE,133,0.0,0.0,97,0.00,,,0.00,Wunderground v.1.15,2013-09-27 11:21:00,
2013-09-27 06:26:00,58.3,57.5,29.97,SE,133,0.0,0.0,97,0.00,,,0.00,Wunderground v.1.15,2013-09-27 11:26:00,
2013-09-27 06:32:00,58.3,57.5,29.97,SE,132,0.0,0.0,97,0.00,,,0.00,Wunderground v.1.15,2013-09-27 11:32:00,
2013-09-27 06:38:00,58.2,57.4,29.97,SE,132,0.0,0.0,97,0.00,,,0.00,Wunderground v.1.15,2013-09-27 11:38:00,
2013-09-27 06:44:00,58.2,57.4,29.97,SE,132,0.0,0.0,97,0.00,,,0.00,Wunderground v.1.15,2013-09-27 11:44:00,
2013-09-27 06:49:00,58.2,57.4,29.98,SE,132,0.0,0.0,97,0.00,,,0.00,Wunderground v.1.15,2013-09-27 11:49:00,
2013-09-27 06:55:00,58.2,57.4,29.97,SE,132,0.0,0.0,97,0.00,,,0.00,Wunderground v.1.15,2013-09-27 11:55:00,
2013-09-27 07:00:00,58.2,57.4,29.98,SE,132,0.0,0.0,97,0.00,,,0.00,Wunderground v.1.15,2013-09-27 12:00:00,
2013-09-27 07:05:00,58.3,57.5,29.98,SE,133,0.0,0.0,97,0.00,,,0.00,Wunderground v.1.15,2013-09-27 12:05:00,
2013-09-27 07:11:00,58.3,57.5,29.98,SE,132,0.0,0.0,97,0.00,,,0.00,Wunderground v.1.15,2013-09-27 12:11:00,
2013-09-27 07:17:00,58.3,57.5,29.98,SE,132,0.0,0.0,97,0.00,,,0.00,Wunderground v.1.15,2013-09-27 12:17:00,
2013-09-27 07:23:00,58.3,57.5,29.98,SE,132,0.0,0.0,97,0.00,,,0.00,Wunderground v.1.15,2013-09-27 12:23:00,
2013-09-27 07:28:00,58.4,57.6,29.99,SE,133,0.0,0.0,97,0.00,,,0.00,Wunderground v.1.15,2013-09-27 12:28:00,
2013-09-27 07:34:00,58.5,57.7,29.99,SE,132,0.0,0.0,97,0.00,,,0.00,Wunderground v.1.15,2013-09-27 12:34:00,
2013-09-27 07:40:00,58.5,57.7,29.99,SE,133,0.0,0.0,97,0.00,,,0.00,Wunderground v.1.15,2013-09-27 12:40:00,
2013-09-27 07:46:00,58.6,57.8,29.99,SE,132,0.0,0.0,97,0.00,,,0.00,Wunderground v.1.15,2013-09-27 12:46:00,
2013-09-27 07:51:00,58.7,57.9,29.99,SW,217,0.0,0.0,97,0.00,,,0.00,Wunderground v.1.15,2013-09-27 12:51:00,
2013-09-27 07:57:00,58.8,58.0,29.99,SW,217,0.0,0.0,97,0.00,,,0.00,Wunderground v.1.15,2013-09-27 12:57:00,
2013-09-27 08:02:00,58.8,58.0,29.99,SW,217,0.0,0.0,97,0.00,,,0.00,Wunderground v.1.15,2013-09-27 13:02:00,
2013-09-27 08:08:00,59.0,58.2,29.99,SW,217,0.0,0.0,97,0.00,,,0.00,Wunderground v.1.15,2013-09-27 13:08:00,
2013-09-27 08:14:00,59.1,58.2,30.00,SW,217,0.0,0.0,97,0.00,,,0.00,Wunderground v.1.15,2013-09-27 13:14:00,
2013-09-27 08:19:00,59.1,58.2,29.99,SW,217,0.0,0.0,97,0.00,,,0.00,Wunderground v.1.15,2013-09-27 13:19:00,
2013-09-27 08:25:00,59.4,58.5,30.00,SW,217,0.0,0.0,97,0.00,,,0.00,Wunderground v.1.15,2013-09-27 13:25:00,
2013-09-27 08:31:00,59.7,58.8,30.00,SW,217,0.0,0.0,97,0.00,,,0.00,Wunderground v.1.15,2013-09-27 13:31:00,
2013-09-27 08:37:00,60.0,59.1,30.00,SW,217,0.0,0.0,97,0.00,,,0.00,Wunderground v.1.15,2013-09-27 13:37:00,
2013-09-27 08:42:00,60.4,59.5,30.00,SW,217,0.0,0.0,97,0.00,,,0.00,Wunderground v.1.15,2013-09-27 13:42:00,
2013-09-27 08:48:00,60.7,59.8,30.00,SW,217,0.0,0.0,97,0.00,,,0.00,Wunderground v.1.15,2013-09-27 13:48:00,
2013-09-27 08:54:00,61.4,60.5,30.00,SE,127,0.0,0.0,97,0.00,,,0.00,Wunderground v.1.15,2013-09-27 13:54:00,
2013-09-27 09:00:00,61.7,60.8,29.99,SE,127,0.0,0.0,97,0.00,,,0.00,Wunderground v.1.15,2013-09-27 14:00:00,
2013-09-27 09:06:00,62.1,61.2,30.00,SE,124,0.0,0.0,97,0.00,,,0.00,Wunderground v.1.15,2013-09-27 14:06:00,
2013-09-27 09:12:00,63.3,62.4,30.00,ESE,120,0.0,0.0,97,0.00,,,0.00,Wunderground v.1.15,2013-09-27 14:12:00,
2013-09-27 09:18:00,64.2,63.3,30.00,ESE,118,0.0,0.0,97,0.00,,,0.00,Wunderground v.1.15,2013-09-27 14:18:00,
2013-09-27 09:23:00,64.8,63.9,30.00,SE,141,0.0,0.0,97,0.00,,,0.00,Wunderground v.1.15,2013-09-27 14:23:00,
2013-09-27 09:29:00,65.4,64.5,29.99,ESE,121,1.0,2.0,97,0.00,,,0.00,Wunderground v.1.15,2013-09-27 14:29:00,
2013-09-27 09:35:00,66.4,64.9,30.00,ESE,117,1.0,2.0,95,0.00,,,0.00,Wunderground v.1.15,2013-09-27 14:35:00,
2013-09-27 09:41:00,67.3,65.5,30.00,East,100,1.0,1.0,94,0.00,,,0.00,Wunderground v.1.15,2013-09-27 14:41:00,
2013-09-27 09:46:00,68.0,65.6,30.00,ESE,102,1.0,2.0,92,0.00,,,0.00,Wunderground v.1.15,2013-09-27 14:46:00,
2013-09-27 09:52:00,68.8,65.1,30.00,East,95,1.0,1.0,88,0.00,,,0.00,Wunderground v.1.15,2013-09-27 14:52:00,
2013-09-27 09:58:00,69.2,65.2,30.00,NE,41,1.0,3.0,87,0.00,,,0.00,Wunderground v.1.15,2013-09-27 14:58:00,
2013-09-27 10:04:00,70.3,66.2,29.99,East,95,1.0,2.0,87,0.00,,,0.00,Wunderground v.1.15,2013-09-27 15:04:00,
2013-09-27 10:10:00,71.2,66.1,30.00,ESE,115,1.0,1.0,84,0.00,,,0.00,Wunderground v.1.15,2013-09-27 15:10:00,
2013-09-27 10:16:00,72.0,66.9,29.99,East,96,1.0,2.0,84,0.00,,,0.00,Wunderground v.1.15,2013-09-27 15:16:00,
2013-09-27 10:22:00,72.4,65.9,29.99,East,79,1.0,1.0,80,0.00,,,0.00,Wunderground v.1.15,2013-09-27 15:22:00,
2013-09-27 10:27:00,73.0,66.8,29.99,ENE,63,1.0,2.0,81,0.00,,,0.00,Wunderground v.1.15,2013-09-27 15:27:00,
2013-09-27 10:33:00,73.9,67.0,29.99,NNW,336,1.0,3.0,79,0.00,,,0.00,Wunderground v.1.15,2013-09-27 15:33:00,
2013-09-27 10:39:00,74.8,68.2,29.99,NE,35,1.0,3.0,80,0.00,,,0.00,Wunderground v.1.15,2013-09-27 15:39:00,
2013-09-27 10:45:00,75.0,67.3,29.99,East,86,2.0,3.0,77,0.00,,,0.00,Wunderground v.1.15,2013-09-27 15:45:00,
2013-09-27 10:50:00,75.9,67.0,29.99,NW,316,1.0,3.0,74,0.00,,,0.00,Wunderground v.1.15,2013-09-27 15:50:00,
2013-09-27 10:56:00,77.0,67.3,29.99,WSW,239,1.0,3.0,72,0.00,,,0.00,Wunderground v.1.15,2013-09-27 15:56:00,
2013-09-27 11:02:00,78.1,66.7,29.98,NW,304,1.0,1.0,68,0.00,,,0.00,Wunderground v.1.15,2013-09-27 16:02:00,
2013-09-27 11:08:00,78.8,67.8,29.98,SW,236,1.0,2.0,69,0.00,,,0.00,Wunderground v.1.15,2013-09-27 16:08:00,
2013-09-27 11:14:00,79.3,66.5,29.98,West,277,1.0,2.0,65,0.00,,,0.00,Wunderground v.1.15,2013-09-27 16:14:00,
2013-09-27 11:20:00,79.7,67.3,29.98,WSW,249,2.0,2.0,66,0.00,,,0.00,Wunderground v.1.15,2013-09-27 16:20:00,
2013-09-27 11:26:00,80.3,66.6,29.98,SW,221,2.0,2.0,63,0.00,,,0.00,Wunderground v.1.15,2013-09-27 16:26:00,
2013-09-27 11:31:00,80.6,66.4,29.98,WNW,299,2.0,3.0,62,0.00,,,0.00,Wunderground v.1.15,2013-09-27 16:31:00,
2013-09-27 11:37:00,81.2,66.9,29.97,West,274,2.0,3.0,62,0.00,,,0.00,Wunderground v.1.15,2013-09-27 16:37:00,
2013-09-27 11:43:00,81.2,66.9,29.97,West,266,2.0,3.0,62,0.00,,,0.00,Wunderground v.1.15,2013-09-27 16:43:00,
2013-09-27 11:49:00,81.6,66.4,29.97,WSW,239,2.0,4.0,60,0.00,,,0.00,Wunderground v.1.15,2013-09-27 16:49:00,
2013-09-27 11:54:00,81.6,67.8,29.96,SSW,194,2.0,3.0,63,0.00,,,0.00,Wunderground v.1.15,2013-09-27 16:54:00,
2013-09-27 12:00:00,82.1,65.9,29.96,East,85,2.0,2.0,58,0.00,,,0.00,Wunderground v.1.15,2013-09-27 17:00:00,
2013-09-27 12:06:00,82.2,66.0,29.96,SE,141,3.0,3.0,58,0.00,,,0.00,Wunderground v.1.15,2013-09-27 17:06:00,
2013-09-27 12:12:00,82.9,65.6,29.96,SSW,210,2.0,3.0,56,0.00,,,0.00,Wunderground v.1.15,2013-09-27 17:12:00,
2013-09-27 12:18:00,82.8,66.0,29.96,WSW,246,2.0,3.0,57,0.00,,,0.00,Wunderground v.1.15,2013-09-27 17:18:00,
2013-09-27 12:24:00,83.2,65.9,29.96,SW,219,2.0,3.0,56,0.00,,,0.00,Wunderground v.1.15,2013-09-27 17:24:00,
2013-09-27 12:28:00,83.4,66.1,29.96,WSW,256,1.0,3.0,56,0.00,,,0.00,Wunderground v.1.15,2013-09-27 17:28:00,
2013-09-27 12:34:00,84.0,66.1,29.95,ESE,114,2.0,7.0,55,0.00,,,0.00,Wunderground v.1.15,2013-09-27 17:34:00,
2013-09-27 12:40:00,84.0,66.1,29.95,WSW,248,2.0,2.0,55,0.00,,,0.00,Wunderground v.1.15,2013-09-27 17:40:00,
2013-09-27 12:46:00,84.3,64.2,29.95,WSW,249,2.0,7.0,51,0.00,,,0.00,Wunderground v.1.15,2013-09-27 17:46:00,
2013-09-27 12:52:00,84.2,64.7,29.95,West,262,2.0,7.0,52,0.00,,,0.00,Wunderground v.1.15,2013-09-27 17:52:00,
2013-09-27 12:57:00,84.0,65.6,29.95,WSW,257,2.0,7.0,54,0.00,,,0.00,Wunderground v.1.15,2013-09-27 17:57:00,
2013-09-27 13:03:00,84.3,64.2,29.94,West,267,2.0,4.0,51,0.00,,,0.00,Wunderground v.1.15,2013-09-27 18:03:00,
2013-09-27 13:09:00,84.5,65.5,29.94,West,259,2.0,4.0,53,0.00,,,0.00,Wunderground v.1.15,2013-09-27 18:09:00,
2013-09-27 13:14:00,84.7,64.6,29.94,WSW,237,2.0,3.0,51,0.00,,,0.00,Wunderground v.1.15,2013-09-27 18:14:00,
2013-09-27 13:20:00,85.1,64.4,29.94,SW,214,2.0,2.0,50,0.00,,,0.00,Wunderground v.1.15,2013-09-27 18:20:00,
2013-09-27 13:26:00,85.2,63.3,29.93,West,275,2.0,2.0,48,0.00,,,0.00,Wunderground v.1.15,2013-09-27 18:26:00,
2013-09-27 13:31:00,85.2,63.9,29.93,SW,218,1.0,7.0,49,0.00,,,0.00,Wunderground v.1.15,2013-09-27 18:31:00,
2013-09-27 13:37:00,85.5,65.9,29.93,SW,233,1.0,7.0,52,0.00,,,0.00,Wunderground v.1.15,2013-09-27 18:37:00,
2013-09-27 13:43:00,85.3,64.6,29.93,West,262,2.0,7.0,50,0.00,,,0.00,Wunderground v.1.15,2013-09-27 18:43:00,
2013-09-27 13:49:00,85.5,64.2,29.92,SW,233,3.0,7.0,49,0.00,,,0.00,Wunderground v.1.15,2013-09-27 18:49:00,
2013-09-27 13:54:00,86.0,66.3,29.92,East,83,2.0,7.0,52,0.00,,,0.00,Wunderground v.1.15,2013-09-27 18:54:00,
2013-09-27 14:00:00,86.7,63.4,29.92,ESE,107,1.0,1.0,46,0.00,,,0.00,Wunderground v.1.15,2013-09-27 19:00:00,
2013-09-27 14:06:00,86.5,65.1,29.92,East,83,1.0,2.0,49,0.00,,,0.00,Wunderground v.1.15,2013-09-27 19:06:00,
2013-09-27 14:12:00,86.7,64.7,29.91,West,270,1.0,2.0,48,0.00,,,0.00,Wunderground v.1.15,2013-09-27 19:12:00,
2013-09-27 14:18:00,86.8,65.9,29.91,ESE,110,2.0,7.0,50,0.00,,,0.00,Wunderground v.1.15,2013-09-27 19:18:00,
2013-09-27 14:23:00,86.3,64.3,29.91,SE,146,3.0,6.0,48,0.00,,,0.00,Wunderground v.1.15,2013-09-27 19:23:00,
2013-09-27 14:29:00,85.6,65.4,29.90,WSW,249,3.0,6.0,51,0.00,,,0.00,Wunderground v.1.15,2013-09-27 19:29:00,
2013-09-27 14:35:00,85.7,66.0,29.90,ESE,105,2.0,6.0,52,0.00,,,0.00,Wunderground v.1.15,2013-09-27 19:35:00,
2013-09-27 14:41:00,86.0,64.6,29.90,SSE,157,2.0,6.0,49,0.00,,,0.00,Wunderground v.1.15,2013-09-27 19:41:00,
2013-09-27 14:46:00,85.3,63.4,29.90,WSW,237,2.0,6.0,48,0.00,,,0.00,Wunderground v.1.15,2013-09-27 19:46:00,
2013-09-27 14:52:00,85.3,63.4,29.89,East,95,2.0,6.0,48,0.00,,,0.00,Wunderground v.1.15,2013-09-27 19:52:00,
2013-09-27 14:58:00,85.7,64.3,29.89,NNE,23,1.0,6.0,49,0.00,,,0.00,Wunderground v.1.15,2013-09-27 19:58:00,
2013-09-27 15:03:00,85.9,63.3,29.89,East,91,2.0,5.0,47,0.00,,,0.00,Wunderground v.1.15,2013-09-27 20:03:00,
2013-09-27 15:09:00,85.8,65.0,29.89,SW,217,3.0,5.0,50,0.00,,,0.00,Wunderground v.1.15,2013-09-27 20:09:00,
2013-09-27 15:14:00,86.1,62.9,29.89,SW,219,2.0,3.0,46,0.00,,,0.00,Wunderground v.1.15,2013-09-27 20:14:00,
2013-09-27 15:20:00,86.3,63.7,29.89,East,96,3.0,3.0,47,0.00,,,0.00,Wunderground v.1.15,2013-09-27 20:20:00,
2013-09-27 15:26:00,85.4,62.3,29.89,ESE,109,4.0,7.0,46,0.00,,,0.00,Wunderground v.1.15,2013-09-27 20:26:00,
2013-09-27 15:32:00,84.9,62.4,29.89,SSE,150,5.0,10.0,47,0.00,,,0.00,Wunderground v.1.15,2013-09-27 20:32:00,
2013-09-27 15:37:00,85.0,62.5,29.89,ESE,111,5.0,10.0,47,0.00,,,0.00,Wunderground v.1.15,2013-09-27 20:37:00,
2013-09-27 15:43:00,84.7,62.8,29.89,SW,218,3.0,10.0,48,0.00,,,0.00,Wunderground v.1.15,2013-09-27 20:43:00,
2013-09-27 15:49:00,85.5,63.0,29.89,SW,227,2.0,10.0,47,0.00,,,0.00,Wunderground v.1.15,2013-09-27 20:49:00,
2013-09-27 15:55:00,86.3,63.7,29.89,SW,228,2.0,10.0,47,0.00,,,0.00,Wunderground v.1.15,2013-09-27 20:55:00,
2013-09-27 16:00:00,86.4,63.2,29.89,WSW,245,2.0,2.0,46,0.00,,,0.00,Wunderground v.1.15,2013-09-27 21:00:00,
2013-09-27 16:06:00,86.6,64.0,29.89,WSW,250,2.0,4.0,47,0.00,,,0.00,Wunderground v.1.15,2013-09-27 21:06:00,
2013-09-27 16:12:00,87.0,63.7,29.89,West,260,2.0,4.0,46,0.00,,,0.00,Wunderground v.1.15,2013-09-27 21:12:00,
2013-09-27 16:17:00,87.0,63.1,29.88,ESE,104,2.0,4.0,45,0.00,,,0.00,Wunderground v.1.15,2013-09-27 21:17:00,
2013-09-27 16:23:00,86.8,62.3,29.88,SE,133,2.0,5.0,44,0.00,,,0.00,Wunderground v.1.15,2013-09-27 21:23:00,
2013-09-27 16:29:00,86.5,62.0,29.89,ENE,57,3.0,6.0,44,0.00,,,0.00,Wunderground v.1.15,2013-09-27 21:29:00,
2013-09-27 16:35:00,86.8,62.3,29.88,SW,236,2.0,11.0,44,0.00,,,0.00,Wunderground v.1.15,2013-09-27 21:35:00,
2013-09-27 16:41:00,86.8,62.3,29.88,SW,217,2.0,11.0,44,0.00,,,0.00,Wunderground v.1.15,2013-09-27 21:41:00,
2013-09-27 16:46:00,86.9,63.6,29.88,SW,227,2.0,11.0,46,0.00,,,0.00,Wunderground v.1.15,2013-09-27 21:46:00,
2013-09-27 16:52:00,86.9,63.6,29.89,West,259,2.0,11.0,46,0.00,,,0.00,Wunderground v.1.15,2013-09-27 21:52:00,
2013-09-27 16:58:00,86.8,62.3,29.89,ESE,120,2.0,11.0,44,0.00,,,0.00,Wunderground v.1.15,2013-09-27 21:58:00,
2013-09-27 17:04:00,86.4,63.2,29.89,West,266,3.0,5.0,46,0.00,,,0.00,Wunderground v.1.15,2013-09-27 22:04:00,
2013-09-27 17:09:00,86.4,62.5,29.88,ESE,113,3.0,5.0,45,0.00,,,0.00,Wunderground v.1.15,2013-09-27 22:09:00,
2013-09-27 17:14:00,86.1,63.5,29.89,WSW,255,3.0,3.0,47,0.00,,,0.00,Wunderground v.1.15,2013-09-27 22:14:00,
2013-09-27 17:20:00,86.3,63.7,29.88,SW,221,2.0,2.0,47,0.00,,,0.00,Wunderground v.1.15,2013-09-27 22:20:00,
2013-09-27 17:26:00,86.6,63.4,29.88,NW,307,2.0,4.0,46,0.00,,,0.00,Wunderground v.1.15,2013-09-27 22:26:00,
2013-09-27 17:32:00,86.4,63.8,29.88,SW,214,1.0,6.0,47,0.00,,,0.00,Wunderground v.1.15,2013-09-27 22:32:00,
2013-09-27 17:37:00,86.5,63.9,29.88,ESE,109,1.0,6.0,47,0.00,,,0.00,Wunderground v.1.15,2013-09-27 22:37:00,
2013-09-27 17:43:00,85.8,63.2,29.89,East,84,1.0,6.0,47,0.00,,,0.00,Wunderground v.1.15,2013-09-27 22:43:00,
2013-09-27 17:49:00,85.8,63.2,29.89,West,264,1.0,6.0,47,0.00,,,0.00,Wunderground v.1.15,2013-09-27 22:49:00,
2013-09-27 17:55:00,85.5,62.4,29.89,East,98,1.0,6.0,46,0.00,,,0.00,Wunderground v.1.15,2013-09-27 22:55:00,
2013-09-27 18:00:00,84.8,61.7,29.89,SE,136,2.0,4.0,46,0.00,,,0.00,Wunderground v.1.15,2013-09-27 23:00:00,
2013-09-27 18:06:00,84.3,61.9,29.89,SSW,205,2.0,4.0,47,0.00,,,0.00,Wunderground v.1.15,2013-09-27 23:06:00,
2013-09-27 18:12:00,83.7,61.9,29.89,East,99,2.0,2.0,48,0.00,,,0.00,Wunderground v.1.15,2013-09-27 23:12:00,
2013-09-27 18:18:00,83.2,61.5,29.89,WSW,252,2.0,5.0,48,0.00,,,0.00,Wunderground v.1.15,2013-09-27 23:18:00,
2013-09-27 18:23:00,83.1,62.0,29.89,South,174,2.0,2.0,49,0.00,,,0.00,Wunderground v.1.15,2013-09-27 23:23:00,
2013-09-27 18:29:00,82.7,61.6,29.89,ESE,118,1.0,2.0,49,0.00,,,0.00,Wunderground v.1.15,2013-09-27 23:29:00,
2013-09-27 18:35:00,81.8,61.9,29.89,ESE,107,1.0,2.0,51,0.00,,,0.00,Wunderground v.1.15,2013-09-27 23:35:00,
2013-09-27 18:41:00,80.9,62.2,29.89,ESE,108,1.0,1.0,53,0.00,,,0.00,Wunderground v.1.15,2013-09-27 23:41:00,
2013-09-27 18:47:00,80.2,62.0,29.89,South,187,0.0,1.0,54,0.00,,,0.00,Wunderground v.1.15,2013-09-27 23:47:00,
2013-09-27 18:53:00,79.5,61.4,29.89,SE,136,0.0,1.0,54,0.00,,,0.00,Wunderground v.1.15,2013-09-27 23:53:00,
2013-09-27 18:59:00,79.0,62.0,29.89,SSE,153,0.0,1.0,56,0.00,,,0.00,Wunderground v.1.15,2013-09-27 23:59:00,
2013-09-27 19:04:00,78.4,61.9,29.89,SSE,153,0.0,0.0,57,0.00,,,0.00,Wunderground v.1.15,2013-09-28 00:04:00,
2013-09-27 19:10:00,78.1,61.6,29.89,ESE,114,0.0,2.0,57,0.00,,,0.00,Wunderground v.1.15,2013-09-28 00:10:00,
2013-09-27 19:16:00,77.8,61.8,29.89,ESE,121,1.0,2.0,58,0.00,,,0.00,Wunderground v.1.15,2013-09-28 00:16:00,
2013-09-27 19:22:00,77.7,61.3,29.89,ESE,118,1.0,1.0,57,0.00,,,0.00,Wunderground v.1.15,2013-09-28 00:22:00,
2013-09-27 19:27:00,77.6,61.7,29.89,ESE,108,1.0,1.0,58,0.00,,,0.00,Wunderground v.1.15,2013-09-28 00:27:00,
2013-09-27 19:33:00,77.1,62.6,29.89,ESE,121,1.0,10.0,61,0.00,,,0.00,Wunderground v.1.15,2013-09-28 00:33:00,
2013-09-27 19:39:00,75.7,62.7,29.89,ESE,122,1.0,10.0,64,0.00,,,0.00,Wunderground v.1.15,2013-09-28 00:39:00,
2013-09-27 19:45:00,74.6,62.5,29.89,SE,124,1.0,10.0,66,0.00,,,0.00,Wunderground v.1.15,2013-09-28 00:45:00,
2013-09-27 19:51:00,74.1,63.3,29.89,East,89,1.0,10.0,69,0.00,,,0.00,Wunderground v.1.15,2013-09-28 00:51:00,
2013-09-27 19:57:00,73.3,63.3,29.89,ESE,107,1.0,10.0,71,0.00,,,0.00,Wunderground v.1.15,2013-09-28 00:57:00,
2013-09-27 20:03:00,73.1,64.3,29.89,ESE,117,1.0,1.0,74,0.00,,,0.00,Wunderground v.1.15,2013-09-28 01:03:00,
2013-09-27 20:08:00,72.3,64.3,29.90,ESE,117,0.0,1.0,76,0.00,,,0.00,Wunderground v.1.15,2013-09-28 01:08:00,
2013-09-27 20:14:00,71.4,64.2,29.89,ESE,117,0.0,0.0,78,0.00,,,0.00,Wunderground v.1.15,2013-09-28 01:14:00,
2013-09-27 20:20:00,70.8,63.6,29.89,ESE,116,0.0,1.0,78,0.00,,,0.00,Wunderground v.1.15,2013-09-28 01:20:00,
2013-09-27 20:26:00,71.0,63.1,29.89,SW,215,0.0,1.0,76,0.00,,,0.00,Wunderground v.1.15,2013-09-28 01:26:00,
2013-09-27 20:32:00,70.8,63.2,29.89,SW,219,0.0,2.0,77,0.00,,,0.00,Wunderground v.1.15,2013-09-28 01:32:00,
2013-09-27 20:38:00,70.7,62.8,29.90,SW,218,0.0,2.0,76,0.00,,,0.00,Wunderground v.1.15,2013-09-28 01:38:00,
2013-09-27 20:44:00,70.6,62.3,29.90,NE,46,0.0,2.0,75,0.00,,,0.00,Wunderground v.1.15,2013-09-28 01:44:00,
2013-09-27 20:50:00,71.0,62.3,29.90,NE,51,0.0,2.0,74,0.00,,,0.00,Wunderground v.1.15,2013-09-28 01:50:00,
2013-09-27 20:55:00,71.1,62.4,29.90,NNW,345,0.0,2.0,74,0.00,,,0.00,Wunderground v.1.15,2013-09-28 01:55:00,
2013-09-27 21:00:00,71.7,62.2,29.90,NW,316,1.0,1.0,72,0.00,,,0.00,Wunderground v.1.15,2013-09-28 02:00:00,
2013-09-27 21:06:00,71.9,62.4,29.90,NNW,345,0.0,1.0,72,0.00,,,0.00,Wunderground v.1.15,2013-09-28 02:06:00,
2013-09-27 21:12:00,72.0,62.9,29.90,West,271,0.0,0.0,73,0.00,,,0.00,Wunderground v.1.15,2013-09-28 02:12:00,
2013-09-27 21:17:00,71.9,62.8,29.90,NNW,333,0.0,1.0,73,0.00,,,0.00,Wunderground v.1.15,2013-09-28 02:17:00,
2013-09-27 21:23:00,72.1,61.8,29.90,WSW,253,0.0,2.0,70,0.00,,,0.00,Wunderground v.1.15,2013-09-28 02:23:00,
2013-09-27 21:29:00,72.1,61.4,29.90,WSW,252,0.0,2.0,69,0.00,,,0.00,Wunderground v.1.15,2013-09-28 02:29:00,
2013-09-27 21:35:00,72.0,61.3,29.90,ENE,73,0.0,2.0,69,0.00,,,0.00,Wunderground v.1.15,2013-09-28 02:35:00,
2013-09-27 21:40:00,72.4,61.7,29.90,East,81,0.0,2.0,69,0.00,,,0.00,Wunderground v.1.15,2013-09-28 02:40:00,
2013-09-27 21:46:00,72.3,61.6,29.90,West,264,0.0,2.0,69,0.00,,,0.00,Wunderground v.1.15,2013-09-28 02:46:00,
2013-09-27 21:52:00,72.1,61.4,29.90,West,262,0.0,2.0,69,0.00,,,0.00,Wunderground v.1.15,2013-09-28 02:52:00,
2013-09-27 21:58:00,72.0,61.3,29.90,ENE,66,0.0,2.0,69,0.00,,,0.00,Wunderground v.1.15,2013-09-28 02:58:00,
2013-09-27 22:04:00,72.2,61.5,29.91,ESE,113,1.0,1.0,69,0.00,,,0.00,Wunderground v.1.15,2013-09-28 03:04:00,
2013-09-27 22:10:00,72.3,61.6,29.91,SW,228,0.0,0.0,69,0.00,,,0.00,Wunderground v.1.15,2013-09-28 03:10:00,
2013-09-27 22:16:00,72.4,61.7,29.91,SSE,159,1.0,2.0,69,0.00,,,0.00,Wunderground v.1.15,2013-09-28 03:16:00,
2013-09-27 22:21:00,72.5,61.7,29.91,WSW,239,1.0,1.0,69,0.00,,,0.00,Wunderground v.1.15,2013-09-28 03:21:00,
2013-09-27 22:27:00,72.4,61.7,29.91,NNE,13,0.0,1.0,69,0.00,,,0.00,Wunderground v.1.15,2013-09-28 03:27:00,
2013-09-27 22:33:00,72.1,61.8,29.92,SE,124,0.0,2.0,70,0.00,,,0.00,Wunderground v.1.15,2013-09-28 03:33:00,
2013-09-27 22:39:00,72.1,61.8,29.92,ESE,122,0.0,2.0,70,0.00,,,0.00,Wunderground v.1.15,2013-09-28 03:39:00,
2013-09-27 22:44:00,72.3,62.0,29.92,ESE,110,1.0,2.0,70,0.00,,,0.00,Wunderground v.1.15,2013-09-28 03:44:00,
2013-09-27 22:50:00,71.9,61.6,29.92,ESE,110,0.0,0.0,70,0.00,,,0.00,Wunderground v.1.15,2013-09-28 03:50:00,
2013-09-27 22:56:00,71.5,61.6,29.92,ESE,102,0.0,0.0,71,0.00,,,0.00,Wunderground v.1.15,2013-09-28 03:56:00,
2013-09-27 23:01:00,71.4,61.5,29.92,SE,132,0.0,0.0,71,0.00,,,0.00,Wunderground v.1.15,2013-09-28 04:01:00,
2013-09-27 23:02:00,71.4,61.5,29.92,ESE,120,0.0,1.0,71,0.00,,,0.00,Wunderground v.1.15,2013-09-28 04:02:00,
2013-09-27 23:06:00,71.2,61.7,29.92,ESE,121,1.0,1.0,72,0.00,,,0.00,Wunderground v.1.15,2013-09-28 04:06:00,
2013-09-27 23:09:00,71.2,61.7,29.91,ESE,121,1.0,1.0,72,0.00,,,0.00,Wunderground v.1.15,2013-09-28 04:09:00,
2013-09-27 23:11:00,71.1,61.6,29.91,East,79,1.0,1.0,72,0.00,,,0.00,Wunderground v.1.15,2013-09-28 04:11:00,
2013-09-27 23:17:00,70.6,61.9,29.91,NE,44,1.0,2.0,74,0.00,,,0.00,Wunderground v.1.15,2013-09-28 04:17:00,
2013-09-27 23:23:00,70.1,61.8,29.92,NE,44,0.0,0.0,75,0.00,,,0.00,Wunderground v.1.15,2013-09-28 04:23:00,
2013-09-27 23:28:00,69.8,61.9,29.92,NE,44,0.0,0.0,76,0.00,,,0.00,Wunderground v.1.15,2013-09-28 04:28:00,
2013-09-27 23:34:00,69.6,61.7,29.92,WSW,252,0.0,3.0,76,0.00,,,0.00,Wunderground v.1.15,2013-09-28 04:34:00,
2013-09-27 23:40:00,69.4,61.9,29.92,WSW,253,0.0,3.0,77,0.00,,,0.00,Wunderground v.1.15,2013-09-28 04:40:00,
2013-09-27 23:46:00,68.9,61.4,29.92,WSW,253,0.0,3.0,77,0.00,,,0.00,Wunderground v.1.15,2013-09-28 04:46:00,
2013-09-27 23:51:00,68.4,61.3,29.92,WSW,253,0.0,3.0,78,0.00,,,0.00,Wunderground v.1.15,2013-09-28 04:51:00,
2013-09-27 23:57:00,67.9,61.5,29.92,WSW,253,0.0,3.0,80,0.00,,,0.00,Wunderground v.1.15,2013-09-28 04:57:00,